{"data":{"norad_id":63178,"epoch":"2026-05-25T01:49:45.846048Z","epoch_age_seconds":82538,"freshness":"FRESH","line1":"1 63178U 25047A   26145.07622507  .00000405  00000+0  68005-4 0  9991","line2":"2 63178  97.9565 330.9570 0009998 228.0015 132.0343 14.74740291 64676","mean_motion":14.74740291,"eccentricity":0.0009998,"inclination_deg":97.9565,"raan_deg":330.957,"arg_perigee_deg":228.0015,"mean_anomaly_deg":132.0343,"bstar":6.8005e-5,"rev_number":6467,"period_min":97.644311258598,"perigee_km":638.95309646953,"apogee_km":652.99851243332,"semimajor_km":7024.1128044514,"source":"CELESTRAK","updated_at":"2026-05-25T13:38:03.543181Z"}}